Location: American Canyon
(38.1966°N, 122.1514°W)
Time: 16:17:15
(UTC+00:00)

Uosat 12 SS-18 rocket - Pass Details

Date: 29 October 2020
Orbit: 601 x 1384 km, 64.6° (Epoch: 23 November)

Event Time Altitude Azimuth Distance (km) Brightness Sun altitude
Rises 13:24:17 0° 206° (SSW) 3,242 7.6 -13.9°
Reaches altitude 10° 13:26:50 10° 205° (SSW) 2,215 6.7 -13.4°
Maximum altitude 13:31:44 77° 120° (ESE) 674 4.3 -12.4°
Drops below altitude 10° 13:36:06 10° 34° (NE) 1,975 7.0 -11.6°
Sets 13:38:16 0° 33° (NNE) 2,859 7.8 -11.2°
